EW2082 Weather Reports


Display with metric or nautical units.
time (UTC)temp
F
wind
direction
speed
MPH
gust
MPH
rain 1hr
in
rain 24hr
in
rain mn
in
humidity
%
barometer
mb
20260904021004 72 350 0.0 0.0 0.00 0.00 0.00 74 1010.8
20260904020004 72 31 0.0 1.0 0.00 0.00 0.00 70 1010.8
20260904015004 73 65 0.0 3.0 0.00 0.00 0.00 68 1010.8
20260904014005 74 27 0.0 3.0 0.00 0.00 0.00 70 1010.9
20260904013004 75 6 0.0 4.0 0.00 0.00 0.00 68 1010.9
20260904012005 76 18 0.0 4.0 0.00 0.00 0.00 65 1010.9
20260904011004 77 18 0.0 3.0 0.00 0.00 0.00 63 1010.8
20260904005005 79 316 0.0 1.0 0.00 0.00 0.00 61 1010.9
20260904003004 79 45 2.0 5.0 0.00 0.00 0.00 61 1010.8
20260904002004 80 60 0.0 6.0 0.00 0.00 0.00 61 1010.8
20260904001004 80 28 0.0 4.0 0.00 0.00 0.00 60 1010.8
20260903235004 81 1 0.0 4.0 0.00 0.00 0.00 60 1011.0
20260903233004 82 350 0.0 2.0 0.00 0.00 0.00 55 1010.9
20260903232004 83 53 0.0 1.0 0.00 0.00 0.00 56 1011.1
20260903231004 83 253 0.0 0.0 0.00 0.00 0.00 56 1011.2
20260903230005 82 58 0.0 4.0 0.00 0.00 0.00 57 1011.3
20260903225004 83 116 0.0 4.0 0.00 0.00 0.00 57 1011.3
20260903223004 85 290 0.0 3.0 0.00 0.00 0.00 54 1011.5
20260903222004 85 176 0.0 0.0 0.00 0.00 0.00 52 1011.7
20260903221004 85 125 0.0 1.0 0.00 0.00 0.00 52 1011.7
20260903220005 84 109 0.0 2.0 0.00 0.00 0.00 53 1011.8
20260903215004 84 122 0.0 0.0 0.00 0.00 0.00 54 1011.9
20260903213005 84 105 0.0 2.0 0.00 0.00 0.00 54 1012.0
20260903212005 83 196 0.0 1.0 0.00 0.00 0.00 53 1012.2
20260903211004 83 254 0.0 4.0 0.00 0.00 0.00 56 1012.3
20260903204004 83 203 2.0 5.0 0.00 0.00 0.00 56 1012.7
20260903203004 83 68 0.0 2.0 0.00 0.00 0.00 58 1012.7
20260903202004 83 15 0.0 5.0 0.00 0.00 0.00 57 1012.9
20260903201004 82 326 0.0 3.0 0.00 0.00 0.00 58 1012.9
20260903200005 83 195 0.0 2.0 0.00 0.00 0.00 58 1013.0
20260903155004 71 153 0.0 0.0 0.00 0.00 0.00 80 1014.2
20260903154004 71 153 0.0 0.0 0.00 0.00 0.00 82 1014.1
20260903153004 70 153 0.0 0.0 0.00 0.00 0.00 82 1014.0
20260903152005 69 153 0.0 0.0 0.00 0.00 0.00 85 1014.0
20260903150004 67 153 0.0 0.0 0.00 0.00 0.00 90 1014.0
20260903145005 67 153 0.0 0.0 0.00 0.00 0.00 90 1014.0
20260903143004 66 153 0.0 0.0 0.00 0.00 0.00 92 1013.8
20260903142004 65 153 0.0 0.0 0.00 0.00 0.00 92 1013.6
20260903141004 64 153 0.0 0.0 0.00 0.00 0.00 92 1013.5
20260903140004 64 153 0.0 0.0 0.00 0.00 0.00 92 1013.4
20260903135004 64 153 0.0 0.0 0.00 0.00 0.00 91 1013.3
20260903134004 64 153 0.0 0.0 0.00 0.00 0.00 92 1013.3
20260903133004 64 153 0.0 0.0 0.00 0.00 0.00 92 1013.4
20260903132004 64 153 0.0 0.0 0.00 0.00 0.00 92 1013.3
20260903131004 64 153 0.0 0.0 0.00 0.00 0.00 92 1013.3
20260903130005 64 153 0.0 0.0 0.00 0.00 0.00 92 1013.3
20260903124004 64 153 0.0 0.0 0.00 0.00 0.00 92 1013.4
20260903122004 64 153 0.0 0.0 0.00 0.00 0.00 92 1013.3
20260903121004 64 153 0.0 0.0 0.00 0.00 0.00 92 1013.3
20260903120004 63 153 0.0 0.0 0.00 0.00 0.00 91 1013.3
20260903114004 63 153 0.0 0.0 0.00 0.00 0.00 91 1013.4
20260903113004 63 153 0.0 0.0 0.00 0.00 0.00 91 1013.6
20260903112004 63 153 0.0 0.0 0.00 0.00 0.00 91 1013.6
20260903111003 63 153 0.0 0.0 0.00 0.00 0.00 91 1013.5
20260903110004 64 153 0.0 0.0 0.00 0.00 0.00 90 1013.6
20260903105004 64 153 0.0 0.0 0.00 0.00 0.00 90 1013.6
20260903104004 64 153 0.0 0.0 0.00 0.00 0.00 90 1013.6
20260903102004 64 153 0.0 0.0 0.00 0.00 0.00 90 1013.6
20260903101004 64 153 0.0 0.0 0.00 0.00 0.00 90 1013.6
20260903100004 64 153 0.0 0.0 0.00 0.00 0.00 89 1013.6
20260903094003 65 153 0.0 0.0 0.00 0.00 0.00 89 1013.8
20260903093004 65 153 0.0 0.0 0.00 0.00 0.00 88 1013.8
20260903092004 66 153 0.0 0.0 0.00 0.00 0.00 88 1013.8
20260903091004 66 153 0.0 0.0 0.00 0.00 0.00 88 1013.9
20260903085004 66 153 0.0 0.0 0.00 0.00 0.00 88 1014.0
20260903082004 66 213 0.0 0.0 0.00 0.00 0.00 88 1014.2
20260903081005 66 184 0.0 0.0 0.00 0.00 0.00 87 1014.3
20260903080004 67 184 0.0 0.0 0.00 0.00 0.00 86 1014.3
20260903075004 67 184 0.0 0.0 0.00 0.00 0.00 85 1014.3
20260903074004 67 184 0.0 0.0 0.00 0.00 0.00 85 1014.3
20260903073005 67 184 0.0 0.0 0.00 0.00 0.00 83 1014.4
20260903072003 68 181 0.0 0.0 0.00 0.00 0.00 82 1014.3
20260903071003 68 212 0.0 1.0 0.00 0.00 0.00 82 1014.3
20260903070006 67 204 0.0 3.0 0.00 0.00 0.00 81 1014.4
20260903065004 67 194 0.0 0.0 0.00 0.00 0.00 81 1014.2
20260903064004 67 194 0.0 0.0 0.00 0.00 0.00 81 1014.2
20260903063003 68 225 0.0 0.0 0.00 0.00 0.00 82 1014.2
20260903062004 68 225 0.0 0.0 0.00 0.00 0.00 83 1014.2
20260903061004 68 176 0.0 0.0 0.00 0.00 0.00 83 1014.1
20260903060004 68 150 0.0 0.0 0.00 0.00 0.00 83 1014.1
20260903055004 69 166 0.0 0.0 0.00 0.00 0.00 83 1014.0
20260903054004 69 265 0.0 0.0 0.00 0.00 0.00 82 1014.1
20260903053003 69 207 0.0 0.0 0.00 0.00 0.00 82 1013.9
20260903052003 69 277 0.0 1.0 0.00 0.00 0.00 82 1013.9
20260903051004 69 263 0.0 1.0 0.00 0.00 0.00 81 1014.0
20260903050003 69 288 0.0 1.0 0.00 0.00 0.00 81 1014.0
20260903045004 69 225 0.0 0.0 0.00 0.00 0.00 80 1014.0
20260903043005 68 195 0.0 2.0 0.00 0.00 0.00 80 1013.9
20260903042004 68 164 0.0 0.0 0.00 0.00 0.00 79 1014.0
20260903041005 68 186 0.0 0.0 0.00 0.00 0.00 78 1013.9
20260903040008 68 186 0.0 0.0 0.00 0.00 0.00 77 1013.9
20260903035005 69 186 0.0 0.0 0.00 0.00 0.00 76 1013.9
20260903034005 69 221 0.0 0.0 0.00 0.00 0.00 76 1013.7
20260903032004 70 207 0.0 0.0 0.00 0.00 0.00 75 1013.7
20260903031004 70 155 0.0 0.0 0.00 0.00 0.00 74 1013.6
20260903030005 70 275 0.0 0.0 0.00 0.00 0.00 73 1013.7
20260903025004 70 250 0.0 2.0 0.00 0.00 0.00 73 1013.6
20260903024004 70 323 0.0 1.0 0.00 0.00 0.00 74 1013.6
20260903023004 70 307 0.0 0.0 0.00 0.00 0.00 74 1013.6
20260903022004 71 316 0.0 2.0 0.00 0.00 0.00 72 1013.6